Terminal Aerodrome Forecast
Issued by NWS State College, PA

Home | Current Version | Previous Version | Text Only | Print | Product List | Glossary On
Versions: 1 2 3 4 5 6 7 8 9 10 11 12 13 14 15 16 17 18 19 20 21 22 23 24 25 26 27 28 29 30 31 32 33 34 35 36 37 38 39 40 41 42 43 44 45 46 47 48 49 50
584
FTUS41 KCTP 172333
TAFIPT
TAF
KIPT 172333Z 1800/1824 VRB03KT P6SM VCSH OVC100
     FM180500 VRB03KT 5SM BR VCSH OVC020
     FM180900 VRB03KT 4SM BR VCSH OVC015
     FM181400 VRB03KT P6SM BKN025 OVC035=

USA.gov is the U.S. government's official web portal to all federal, state and local government web resources and services.